Location: Unspecified
(48.8430°N, 12.6288°E)
Time: 11:42:22
(UTC+02:00)

ISS - Visible Passes

Search period start: 25 September 2021 00:00
Search period end: 05 October 2021 00:00
Orbit: 417 x 423 km, 51.6° (Epoch: 25 September)

Date Brightness Start Highest point End Pass type
(mag) Time Alt. Az. Time Alt. Az. Time Alt. Az.
25 Sep -3.1 20:14:35 10° W 20:17:52 50° N 20:19:54 21° ENE visible
25 Sep -1.2 21:51:34 10° WNW 21:52:52 21° WNW 21:52:52 21° WNW visible
26 Sep -3.2 19:27:08 10° W 19:30:27 54° N 19:33:46 10° ENE visible
26 Sep -3.3 21:04:12 10° WNW 21:07:15 58° NNW 21:07:15 58° NNW visible
27 Sep -3.3 20:16:46 10° WNW 20:20:05 54° N 20:21:37 27° ENE visible
27 Sep -0.9 21:53:38 10° WNW 21:54:34 17° WNW 21:54:34 17° WNW visible
28 Sep -3.2 19:29:16 10° WNW 19:32:34 50° N 19:35:52 10° E visible
28 Sep -3.1 21:06:11 10° WNW 21:08:54 55° WNW 21:08:54 55° WNW visible
29 Sep -3.8 20:18:41 10° WNW 20:22:03 75° NNE 20:23:13 38° E visible
29 Sep -0.6 21:55:43 10° W 21:56:10 13° W 21:56:10 13° W visible
30 Sep -3.5 19:31:09 10° WNW 19:34:29 61° NNE 19:37:31 12° E visible
30 Sep -2.4 21:08:02 10° WNW 21:10:29 35° WSW 21:10:29 35° WSW visible
01 Oct -3.5 20:20:24 10° WNW 20:23:43 61° SSW 20:24:48 37° SE visible
02 Oct -3.7 19:32:45 10° WNW 19:36:08 84° SSW 19:39:08 13° ESE visible
02 Oct -1.4 21:10:05 10° W 21:12:05 19° SW 21:12:05 19° SW visible
03 Oct -2.1 20:22:07 10° W 20:25:03 28° SW 20:26:27 21° S visible
04 Oct -2.7 19:34:15 10° WNW 19:37:27 42° SSW 19:40:39 10° SE visible
